Theta_e
337 337 337 337 337 336 335 335 335 336 335 334 333 332 330 330 328 328 329 329 328 327 326 329 331 330 332 332 331 330 330 330 330 327 328 330 333 332 331 331 330 330 331 330 328 327 326 326 327 327 327 325 322 321 323 326 326 323 321 321 321 321 318 314 312 311 309 308 307 307 309 312 314 313 312 311 315 319 321 324 325 325 326 327 328
338 338 338 337 337 336 336 336 335 335 335 334 334 335 335 336 334 331 331 331 331 331 329 329 330 330 331 332 332 332 331 331 331 329 328 329 332 332 331 331 331 330 330 330 329 328 327 326 327 327 328 326 322 320 322 325 326 324 322 320 320 320 317 314 312 310 308 307 307 308 310 313 314 313 313 312 313 318 320 322 324 325 326 327 328
337 337 337 337 337 336 336 336 336 335 334 333 333 333 334 336 335 333 332 332 331 332 331 331 331 330 331 332 332 333 333 332 331 330 330 332 334 333 332 331 331 330 329 330 330 329 328 327 327 327 328 327 324 320 320 324 325 325 323 320 319 318 316 314 311 309 308 309 309 309 312 314 315 314 314 313 312 315 318 320 323 324 325 328 329
336 336 336 336 336 336 336 335 335 335 333 332 332 332 332 333 332 331 331 332 332 332 331 331 331 331 331 332 332 333 333 331 331 330 331 332 331 332 333 332 331 331 330 330 331 330 330 328 327 327 328 327 325 321 318 321 325 324 323 321 319 316 316 314 310 309 310 312 313 312 313 315 316 316 316 314 313 313 314 317 321 322 324 327 329
336 336 335 335 336 335 335 335 335 334 333 333 333 333 333 333 332 332 332 333 334 334 333 332 331 331 331 331 332 333 333 331 330 330 330 330 328 328 332 334 333 332 331 330 331 331 330 329 328 327 328 328 327 323 317 319 324 323 322 322 318 315 315 313 311 312 313 317 318 315 315 316 317 318 317 316 316 314 313 314 317 318 322 326 328
335 335 335 336 336 336 335 336 335 334 334 334 334 334 334 334 334 335 336 335 336 335 335 334 332 332 332 331 331 332 332 331 330 330 330 328 327 327 329 332 334 334 333 331 331 331 331 330 329 328 328 328 328 325 318 319 323 322 321 321 317 315 315 313 313 316 317 320 320 318 318 318 318 319 318 318 318 316 313 312 313 314 317 323 327
333 335 336 337 337 336 337 336 336 335 335 334 334 334 335 335 334 335 336 336 336 335 335 335 335 334 334 332 331 331 330 330 330 331 329 328 328 328 329 330 332 333 333 332 331 331 331 331 330 329 328 328 328 326 320 319 322 322 321 321 317 315 316 315 316 319 320 321 321 319 319 319 319 318 318 318 318 317 314 311 312 312 311 319 326
332 334 336 337 337 337 337 336 335 335 335 334 334 335 335 334 334 334 334 335 335 336 336 335 335 336 336 334 333 331 330 330 330 329 327 327 326 326 328 329 330 332 332 332 332 331 331 331 330 329 329 329 328 326 322 317 320 322 321 320 318 317 315 316 318 321 322 322 321 320 320 319 318 318 318 318 318 317 314 310 311 311 309 316 324
333 334 335 336 337 337 336 335 334 333 334 334 334 334 334 333 333 334 334 334 334 336 336 335 336 336 336 335 334 333 332 330 328 325 323 324 323 323 327 328 328 330 330 331 332 332 331 331 331 330 329 329 328 327 323 318 319 322 321 319 319 318 315 316 320 322 323 323 322 320 319 319 318 318 318 318 317 315 313 311 311 311 308 312 321
335 335 336 336 336 335 335 334 333 332 333 333 334 334 333 332 332 333 333 333 334 335 335 336 336 335 335 335 334 333 333 331 329 327 326 326 326 325 327 328 327 328 329 330 331 331 332 331 331 331 330 329 329 328 325 320 319 321 322 319 319 318 314 317 321 322 323 323 322 320 319 319 318 318 318 317 317 315 313 313 312 312 309 308 313
336 335 336 336 335 334 334 333 332 332 333 333 333 333 333 333 331 332 332 332 333 333 333 334 334 333 333 333 332 331 332 332 331 330 329 330 331 330 329 329 328 329 329 330 331 331 331 332 332 331 330 329 329 329 326 321 317 319 320 318 319 319 315 317 321 322 323 323 322 321 319 320 318 316 317 317 317 316 315 315 314 313 310 307 308
335 335 335 335 334 333 333 332 331 331 331 333 334 333 333 333 332 331 331 332 333 333 333 333 333 333 333 332 331 330 330 330 329 329 329 329 330 331 330 330 329 330 330 330 331 332 332 331 332 331 330 330 329 329 328 323 317 315 317 316 319 319 314 316 321 322 323 323 322 321 320 319 316 315 316 317 318 318 317 317 317 314 311 308 307
336 335 335 334 333 334 334 333 332 332 331 332 333 332 332 332 333 332 331 331 332 334 334 333 333 333 332 332 331 331 330 329 327 327 327 327 328 329 330 330 330 331 331 330 331 332 332 331 331 331 330 331 330 329 329 326 318 313 313 315 319 319 313 315 321 322 322 323 322 321 320 319 316 315 316 317 319 320 319 319 319 317 314 310 307
335 335 335 334 334 334 334 333 333 334 333 332 332 332 332 332 332 332 330 330 331 332 332 331 332 331 331 331 331 331 331 330 329 328 326 326 328 328 329 330 330 331 331 331 331 331 331 331 331 331 330 331 331 330 329 328 323 315 312 313 319 320 315 313 319 323 323 323 322 321 320 317 316 316 317 317 320 321 321 320 321 320 319 315 312
335 335 334 334 334 334 334 334 333 333 333 333 333 333 333 333 333 333 332 332 332 332 331 331 331 332 331 331 331 331 331 332 332 331 328 326 327 328 329 329 329 330 330 331 332 331 331 331 331 331 330 330 331 330 329 329 327 320 313 311 316 319 315 311 318 324 324 323 322 321 319 316 316 319 318 319 320 321 321 321 321 322 321 320 318
335 335 334 334 334 333 333 334 334 333 333 334 334 333 333 333 333 333 332 333 333 333 333 332 332 332 331 331 331 331 331 332 333 333 332 331 329 328 328 328 327 328 329 329 330 330 330 331 331 331 331 330 330 331 330 329 328 324 316 312 315 318 314 311 317 324 325 324 323 321 319 316 318 320 320 320 320 320 321 321 322 322 322 321 320
335 335 334 334 333 334 333 333 334 334 334 334 334 334 333 333 332 332 332 332 333 334 333 332 332 332 332 331 331 331 331 331 331 332 333 334 333 331 330 329 328 328 328 328 329 329 330 331 331 331 330 330 330 330 331 330 328 326 319 313 314 317 315 312 317 324 326 325 323 321 319 317 320 321 320 321 319 319 321 321 321 322 322 322 321
335 335 335 334 334 334 334 334 333 333 334 333 333 334 333 332 332 332 332 332 332 332 332 332 331 331 331 331 331 331 332 332 332 331 332 333 334 334 333 330 330 329 329 328 328 329 329 330 330 331 330 330 330 330 331 330 328 327 323 316 314 316 316 313 318 325 327 325 324 321 319 318 320 321 321 320 318 318 320 321 321 321 322 322 321
335 335 335 334 334 333 333 333 331 332 333 332 333 333 332 332 332 332 331 331 331 331 331 331 331 330 330 331 331 331 332 332 332 331 331 332 333 333 333 332 331 331 330 329 329 328 329 329 329 330 330 330 330 330 330 331 330 328 326 321 316 315 316 314 317 325 327 327 325 322 320 319 319 321 321 321 318 317 319 321 321 321 321 321 321
334 333 333 332 332 331 332 331 330 330 330 331 331 332 332 332 331 331 331 330 330 330 330 330 330 330 330 330 330 331 332 332 332 332 332 332 332 332 332 333 333 332 331 331 330 329 329 329 329 329 329 329 330 330 330 330 331 330 327 323 318 315 316 314 317 324 327 327 326 324 322 320 319 321 321 321 318 315 318 320 320 321 320 320 321
332 331 331 331 330 329 328 329 329 329 328 328 329 330 330 330 329 329 330 330 330 330 330 330 330 330 330 330 330 331 331 331 331 332 332 332 332 331 331 332 333 333 333 332 331 331 329 329 329 329 329 329 329 330 330 331 331 330 329 326 322 316 315 314 316 323 326 326 327 326 325 322 320 321 321 321 319 313 315 320 320 320 320 319 320
331 330 329 328 327 325 324 325 327 326 325 326 328 328 328 328 328 328 329 329 329 329 329 329 329 329 330 330 330 330 330 330 331 331 331 332 331 330 330 331 332 332 332 333 333 332 332 331 329 329 329 329 329 329 329 330 330 331 329 328 326 319 316 315 316 322 326 326 327 327 326 324 321 322 322 321 320 314 313 319 319 319 320 320 320
329 328 326 323 322 321 320 321 323 324 325 326 327 328 328 328 327 327 328 328 328 328 327 328 329 329 329 329 329 330 330 330 330 330 331 331 330 330 329 330 330 330 331 331 332 332 332 332 332 330 329 329 329 328 328 330 330 331 330 329 328 322 317 315 315 320 326 326 326 327 327 325 323 323 322 320 321 316 311 315 319 318 319 319 319
326 324 322 320 320 319 318 319 321 321 322 322 323 325 326 327 327 327 328 328 328 327 327 327 328 329 329 329 328 329 329 329 330 330 330 331 330 330 330 329 330 329 329 330 330 331 330 331 332 332 330 330 329 328 328 329 329 331 331 330 329 325 319 317 315 318 324 326 326 327 326 326 324 324 323 320 320 318 311 311 316 318 319 319 318
322 320 319 318 318 318 318 318 318 318 318 318 318 320 321 323 325 326 327 328 327 327 327 327 327 327 328 329 329 328 328 329 329 329 330 330 330 330 330 329 329 329 329 329 330 330 330 331 332 332 331 330 330 329 329 328 328 329 331 330 330 328 321 317 317 317 321 326 327 327 326 326 325 324 324 321 318 316 312 309 311 316 318 317 317
320 318 318 317 317 317 317 317 317 317 317 317 317 317 318 319 322 323 325 326 327 327 327 327 327 327 328 329 329 328 329 329 328 329 329 329 329 330 329 329 329 329 328 329 329 329 330 331 332 332 332 331 329 330 330 329 329 328 330 330 330 330 324 319 318 317 319 324 326 326 326 326 326 325 325 324 318 311 309 307 307 310 313 313 313
319 317 317 316 316 316 316 316 316 316 316 316 316 318 318 317 318 319 321 324 326 326 326 326 326 326 327 328 328 328 328 328 328 328 328 329 329 329 329 329 329 328 328 328 329 329 330 330 331 332 332 330 328 329 330 330 330 328 329 330 330 331 328 322 319 318 317 321 325 326 326 326 326 325 325 325 322 314 306 305 305 304 307 308 308
317 316 316 316 316 316 315 315 315 315 315 315 316 317 317 315 316 318 319 322 324 324 324 325 325 326 326 327 327 327 328 328 328 328 327 327 328 328 328 328 329 329 328 328 328 329 330 330 330 331 332 329 327 328 329 329 330 329 328 329 330 331 330 325 320 320 318 318 322 325 325 325 326 326 325 324 325 320 309 304 304 303 303 304 305
316 316 315 315 315 315 315 315 315 315 315 315 315 315 315 315 316 317 318 319 320 320 321 323 323 325 325 326 327 327 327 327 328 328 327 328 328 328 328 328 328 329 328 328 328 328 329 329 330 331 332 331 329 328 329 328 328 328 328 328 327 328 330 328 322 320 320 318 320 324 325 325 325 326 326 325 325 323 313 305 304 303 302 303 303
315 315 315 315 315 314 314 314 314 314 314 314 314 314 315 315 315 315 316 317 317 317 319 321 321 322 324 326 327 327 327 327 327 328 328 328 328 328 328 328 328 328 328 328 328 328 329 329 329 330 331 331 330 328 328 328 328 328 328 327 325 325 328 329 325 321 321 319 318 322 324 325 325 325 326 325 324 323 316 309 304 303 302 302 302
314 314 314 314 314 314 314 314 314 314 314 314 314 314 315 315 315 315 316 316 317 317 318 320 320 320 321 323 325 326 327 327 327 328 328 328 328 328 328 329 328 329 328 328 328 328 328 328 329 330 330 331 332 329 327 328 328 328 328 328 327 326 328 330 327 322 322 321 319 320 323 325 325 325 325 325 325 323 319 315 309 303 302 302 302
314 314 314 313 313 313 313 314 314 314 315 315 315 315 315 316 316 316 317 317 317 319 319 320 320 319 319 320 320 323 326 327 327 327 328 328 328 327 328 329 328 329 328 328 328 328 327 328 328 329 330 331 332 330 327 328 329 328 329 329 328 328 329 329 328 325 323 323 320 318 321 324 325 325 325 325 325 323 321 320 316 309 303 301 301
313 313 313 313 313 313 314 315 315 316 316 316 316 316 315 316 316 317 318 318 320 321 321 321 320 319 319 319 319 320 323 325 325 326 326 327 327 328 328 329 328 328 327 327 328 328 328 327 327 328 329 330 331 330 327 328 328 328 329 329 328 328 329 328 328 327 324 323 322 318 318 322 324 325 325 325 325 325 323 322 321 318 310 303 300
313 313 313 313 313 314 315 316 316 316 316 316 316 316 316 316 317 317 319 320 322 322 322 322 321 320 319 320 319 319 320 322 323 324 325 326 328 328 328 328 329 328 328 328 328 328 328 327 327 327 328 330 331 329 328 328 328 327 328 328 328 328 328 328 328 328 325 322 323 321 317 319 323 324 325 325 325 325 324 323 322 322 319 311 302
313 313 313 313 314 314 315 316 316 316 316 316 316 316 316 317 318 318 319 320 321 322 322 321 321 321 320 320 320 320 321 321 323 324 325 326 328 328 327 327 328 328 328 328 327 327 328 327 327 327 328 330 330 328 327 328 328 327 327 327 326 325 326 327 328 329 326 323 324 323 319 317 320 322 323 324 324 324 324 324 323 322 323 320 310
313 313 314 314 315 315 315 316 316 316 316 316 315 315 316 317 318 319 319 320 320 321 321 321 321 321 321 321 321 321 322 322 323 324 325 326 327 328 328 327 327 328 328 328 328 327 327 328 327 328 328 329 330 329 327 327 328 327 327 326 326 325 325 327 328 328 329 326 324 324 322 318 317 318 321 324 324 324 324 324 324 323 323 323 319
313 313 314 315 315 315 316 316 315 315 315 315 315 315 316 317 318 319 320 320 321 321 321 321 321 321 321 321 322 322 323 323 324 324 325 325 326 327 327 327 327 328 327 327 328 327 327 328 327 327 328 328 329 329 328 327 328 327 327 326 326 327 327 328 328 328 329 328 325 324 325 323 318 316 318 321 323 324 324 323 324 324 323 323 323
313 314 314 315 315 315 315 315 315 315 315 315 315 315 315 316 317 319 320 320 321 321 322 322 322 322 322 322 322 322 322 323 324 324 324 324 325 325 326 326 326 327 326 326 327 328 328 328 327 327 328 328 328 329 328 327 327 327 327 326 326 327 328 328 328 328 328 328 327 325 325 325 323 318 317 319 321 322 323 323 323 324 324 323 323
313 314 314 315 315 315 315 314 314 314 314 314 314 314 314 314 315 316 318 319 319 320 321 321 321 322 322 322 322 322 322 322 323 323 323 323 324 324 324 325 325 325 325 325 326 327 327 327 327 327 328 328 328 328 327 327 327 327 327 327 327 327 328 328 328 328 328 328 328 326 325 325 325 323 321 320 319 319 321 322 323 323 324 323 323
314 314 314 314 313 312 313 313 313 313 313 313 313 313 313 313 313 314 315 316 317 317 319 320 320 320 320 320 321 321 321 321 322 322 323 323 323 323 323 323 324 324 324 325 325 325 326 326 327 327 327 327 327 328 327 327 327 327 327 327 327 327 328 328 328 328 328 328 328 327 326 325 325 325 325 323 321 319 318 320 322 323 323 323 323
314 313 312 313 312 311 311 312 312 312 312 312 312 312 312 313 313 313 314 314 315 316 317 318 318 317 317 318 319 320 320 320 321 321 321 321 321 322 321 321 322 322 322 323 323 324 325 326 326 326 327 327 328 327 326 326 327 327 327 327 327 327 328 328 328 328 328 328 328 328 327 326 325 325 325 325 324 322 318 318 320 322 323 323 323
312 311 311 311 311 310 310 311 311 311 311 311 311 311 312 312 312 312 313 313 314 314 315 315 315 315 315 315 316 317 317 318 319 319 318 318 319 319 320 320 320 321 321 321 322 323 323 324 325 325 326 326 327 327 326 326 326 326 326 326 327 326 326 327 327 328 328 328 328 327 327 327 327 326 325 325 325 323 320 318 318 320 321 322 322
310 310 310 310 310 309 309 309 310 310 310 310 310 311 311 311 312 312 312 312 312 312 312 313 313 313 313 314 314 315 315 316 316 316 315 315 316 316 316 317 318 319 320 320 321 321 322 323 323 324 325 326 326 326 326 326 325 325 326 326 326 326 326 326 326 326 327 328 328 327 327 327 328 327 326 325 325 325 323 321 320 319 319 321 322
309 309 309 309 308 308 308 308 308 308 309 309 309 310 310 311 311 311 310 310 310 310 310 311 311 311 311 312 312 313 313 313 314 314 314 314 314 314 314 314 315 316 317 318 318 319 319 320 321 322 323 324 324 325 325 325 325 325 325 325 325 326 326 327 327 326 326 327 327 327 327 327 328 328 327 326 325 326 324 323 323 321 319 320 321
307 308 308 308 307 306 306 307 307 307 308 308 309 309 309 310 310 310 309 309 308 308 309 309 309 309 309 310 310 310 310 310 311 312 312 313 313 313 313 313 313 313 314 315 315 316 316 317 318 319 320 321 322 323 324 324 325 325 325 325 325 325 326 326 326 326 326 326 326 327 326 327 327 328 328 327 326 326 325 324 324 322 321 320 320
306 306 306 306 306 306 306 306 306 306 306 307 308 308 309 309 309 308 308 307 307 307 307 307 307 307 307 308 308 308 308 308 308 309 309 311 312 311 311 312 311 311 312 313 313 314 314 315 316 317 318 319 320 321 322 323 324 324 324 325 325 325 325 326 326 326 325 324 325 326 326 326 327 327 328 327 326 325 325 325 324 323 322 320 319
305 305 305 305 305 305 305 304 304 305 305 306 307 307 308 308 308 307 306 306 306 306 306 306 306 306 306 306 306 306 306 307 307 307 307 308 309 310 310 310 310 310 310 310 311 312 312 313 313 314 315 317 318 320 321 322 323 323 323 324 324 324 324 325 325 326 324 323 324 326 325 325 326 327 327 327 327 326 326 325 324 323 323 320 320
304 304 304 304 304 303 304 304 303 303 303 304 305 306 307 307 307 306 305 305 305 305 305 305 305 305 305 305 305 305 305 306 306 306 306 307 308 308 308 308 308 308 308 308 309 310 310 310 311 311 313 314 316 317 319 321 322 323 323 323 323 324 324 325 325 325 325 324 325 325 325 324 325 325 326 325 325 325 325 325 325 323 322 320 321
302 302 302 302 301 301 302 302 302 302 301 302 303 303 304 305 306 305 305 305 304 304 304 304 304 304 304 303 304 304 304 304 305 305 306 306 307 307 307 308 308 308 307 307 308 308 308 309 310 310 311 312 314 315 317 319 321 322 323 323 323 323 323 324 324 325 325 325 324 324 324 323 324 324 322 320 320 321 322 323 325 323 321 320 320
301 301 300 300 299 299 299 301 301 300 300 300 301 301 302 302 304 305 304 304 304 303 303 303 302 302 302 302 302 302 302 303 303 304 305 305 306 306 307 307 307 307 307 306 306 306 307 307 308 309 310 311 312 314 316 318 319 320 321 322 322 322 322 323 323 324 324 324 324 324 323 321 322 322 320 317 315 315 316 317 319 320 320 319 315
301 300 300 299 298 298 298 298 298 298 298 298 299 299 300 300 302 303 303 303 303 302 301 301 301 301 300 300 300 301 301 301 302 303 303 304 305 305 305 306 306 306 306 306 305 305 305 306 307 308 308 309 311 312 313 315 317 319 320 321 321 321 321 322 323 322 322 322 322 323 321 320 319 318 317 315 311 309 310 311 312 315 316 313 310
Wind_Speed
3 3 3 4 3 3 3 3 3 3 3 3 4 5 6 7 8 8 8 9 10 11 11 12 13 13 13 13 13 13 13 13 12 10 10 9 9 10 9 9 9 7 6 7 7 8 9 10 10 11 9 8 8 6 3 3 6 8 10 10 10 9 8 5 4 5 4 2 2 4 6 7 7 8 9 11 11 10 10 10 9 9 9 9 10
5 5 4 4 4 3 3 3 4 4 4 5 5 5 6 6 7 8 8 10 10 10 11 11 12 13 13 14 14 14 14 14 14 12 11 10 9 11 12 10 10 9 8 7 8 8 9 9 10 11 9 8 9 7 3 4 7 9 11 12 11 10 7 5 4 4 4 4 4 6 7 8 8 8 9 11 11 10 10 11 10 10 9 10 10
5 5 4 4 4 4 4 5 5 6 5 6 7 7 7 7 8 9 9 11 10 11 12 10 11 12 13 14 14 14 14 15 15 13 12 11 10 12 14 13 11 11 10 9 8 9 9 9 10 10 9 7 8 7 4 6 8 9 10 10 10 9 6 5 4 4 5 5 5 7 9 9 9 9 9 10 11 10 10 12 12 11 11 11 11
4 4 4 4 5 5 6 6 7 7 7 7 7 8 9 9 10 10 11 12 12 12 12 12 12 12 12 13 13 14 15 16 17 16 15 14 14 13 13 15 14 13 12 11 10 10 10 10 10 10 10 8 7 7 6 6 7 8 8 7 7 7 5 3 4 5 5 5 5 7 9 10 10 10 9 10 10 10 10 12 13 12 12 13 13
4 4 4 4 5 6 7 7 8 9 9 9 9 10 10 10 11 10 10 11 11 11 12 13 13 13 13 13 14 14 15 17 18 19 19 18 18 17 14 14 15 15 14 12 11 11 11 11 10 11 10 9 9 9 8 7 8 9 9 7 6 6 4 4 6 6 6 6 5 7 9 10 10 10 10 10 10 10 10 12 13 13 13 14 14
5 5 5 5 6 7 7 8 9 10 10 11 12 12 11 12 11 10 9 9 9 10 11 12 12 13 13 14 15 15 16 19 20 21 22 22 21 20 18 15 13 14 15 14 13 13 12 12 11 11 10 10 10 10 9 7 9 10 10 8 6 7 6 6 7 6 6 6 6 7 8 9 9 9 10 10 10 10 11 11 11 12 13 15 15
6 5 5 6 6 7 7 9 10 10 10 11 11 10 10 12 11 10 9 10 9 10 11 11 12 12 13 14 16 17 18 20 20 21 23 24 22 21 20 18 14 14 15 14 15 15 14 13 12 12 11 11 11 11 10 8 9 11 10 9 7 7 8 8 8 7 7 7 7 7 8 8 8 9 9 9 9 10 11 11 11 10 12 17 17
8 6 6 6 6 6 7 9 10 9 9 10 9 8 8 9 10 10 10 10 10 9 11 11 12 13 14 16 17 18 19 19 20 22 24 25 23 22 21 20 17 16 16 15 16 16 15 14 13 13 13 13 12 12 11 9 9 10 10 9 8 8 9 10 10 9 9 9 8 7 8 8 8 8 9 9 9 10 11 11 11 11 12 17 19
8 7 7 6 6 6 7 8 9 8 7 7 7 7 8 9 8 10 10 11 10 9 10 11 12 12 14 15 17 18 19 19 21 22 24 24 24 23 21 21 20 18 18 17 18 18 17 16 15 14 15 14 13 12 12 10 9 10 10 10 9 9 11 13 11 10 11 10 9 8 7 8 8 9 9 9 9 10 11 11 11 11 11 15 19
6 6 6 6 6 6 7 7 7 6 6 6 6 7 9 9 8 8 9 11 11 10 10 10 11 12 13 14 15 17 17 19 21 22 23 23 23 23 22 21 21 20 19 19 20 20 18 17 16 15 15 16 15 13 12 12 10 10 11 11 10 10 12 14 12 12 12 11 10 9 8 8 8 9 9 9 10 11 11 10 10 11 11 13 16
6 6 6 5 5 6 7 7 6 5 5 5 6 7 8 10 9 8 8 9 10 11 10 10 12 12 13 14 15 16 16 18 19 21 22 22 23 23 22 21 21 21 20 19 21 21 20 17 16 16 17 16 16 14 13 13 12 12 12 11 11 12 14 15 13 13 13 12 12 10 8 8 8 9 10 10 11 11 11 11 10 10 12 13 14
6 6 6 5 5 5 6 7 6 5 5 5 5 7 8 9 10 8 7 7 8 9 9 10 11 11 12 14 15 15 16 17 19 19 18 19 20 21 22 22 22 21 19 19 20 21 21 20 18 17 17 17 16 14 13 13 13 13 13 12 12 13 16 17 14 13 14 13 13 11 10 9 9 10 11 12 12 12 12 12 11 11 12 13 14
6 6 6 5 5 5 6 7 7 6 6 6 6 7 8 8 9 9 8 7 7 7 8 9 9 10 11 12 14 15 15 16 16 17 17 17 16 17 19 20 20 19 17 18 19 20 21 22 21 19 18 17 16 15 14 15 15 15 14 13 13 14 17 18 15 14 15 15 13 12 11 11 11 12 12 13 13 13 13 13 12 12 12 13 14
5 5 5 5 5 6 6 7 7 7 7 7 7 7 7 7 8 10 9 8 7 7 9 10 9 10 10 12 13 13 13 14 14 14 14 15 14 14 16 17 17 17 17 17 18 20 21 22 23 21 20 18 17 17 15 16 17 16 15 14 14 14 17 18 16 15 15 16 14 12 12 13 13 13 13 14 14 13 13 13 13 13 13 14 16
5 5 5 5 5 6 6 7 8 8 8 7 7 7 7 8 9 9 9 9 9 8 9 9 9 9 10 12 12 11 12 12 11 11 11 12 13 13 14 14 15 16 18 18 19 22 22 22 23 22 21 20 20 19 17 18 17 15 15 15 16 16 17 18 17 16 16 16 15 12 13 14 15 14 14 15 15 15 14 13 14 14 14 14 16
4 5 5 6 6 7 7 8 8 9 9 8 8 9 9 9 9 10 10 10 10 9 9 9 9 9 9 12 13 12 11 8 8 10 11 11 12 12 13 14 14 15 17 18 19 22 22 23 23 22 21 21 22 21 19 18 16 15 16 15 17 16 17 19 19 18 18 17 14 12 13 16 16 15 15 16 15 16 15 15 15 15 15 15 15
4 4 6 7 7 7 8 8 9 9 9 9 9 9 10 11 11 11 11 11 10 10 10 11 11 10 11 13 12 12 12 11 12 12 10 11 12 12 13 14 14 14 16 17 17 19 20 21 23 22 22 22 23 23 22 19 16 17 18 17 18 16 17 20 20 19 19 19 16 13 14 16 16 16 16 16 17 16 16 16 16 15 15 15 15
4 4 5 6 6 7 8 9 10 10 9 9 10 10 11 12 12 11 12 12 13 12 12 13 14 14 14 15 14 14 16 16 16 15 12 11 12 13 15 15 15 15 16 17 18 18 19 20 21 22 24 24 23 24 25 23 20 19 19 19 19 17 18 21 22 21 20 21 19 15 14 17 16 16 16 17 17 17 17 17 16 16 16 16 16
4 5 5 6 6 8 9 9 10 10 10 10 11 11 11 10 11 11 12 13 14 14 14 14 16 17 16 16 17 17 18 18 17 18 17 15 13 13 15 17 17 17 17 18 18 19 19 20 20 22 24 25 25 26 26 26 25 22 20 19 19 18 19 22 24 23 23 24 22 17 15 16 17 16 16 17 17 18 19 19 18 17 17 17 17
6 7 6 6 7 7 8 8 8 8 10 10 10 11 11 11 11 12 12 13 14 15 15 15 15 17 16 17 18 17 18 19 19 18 19 21 19 16 16 16 16 17 18 19 19 19 20 20 21 21 22 23 26 28 28 28 28 25 23 23 22 19 19 23 25 25 25 26 24 20 16 15 17 17 17 18 18 18 20 20 19 18 18 18 18
6 7 6 6 7 7 7 7 7 7 8 8 9 9 11 11 11 12 12 13 14 15 16 16 16 17 17 17 18 18 18 19 19 19 20 22 23 20 17 15 16 17 17 19 20 21 21 21 22 22 22 22 24 27 29 30 30 28 27 27 25 22 20 23 27 27 28 28 26 23 19 16 17 18 18 18 18 18 20 21 20 20 19 18 18
6 7 9 8 7 8 8 7 7 7 7 7 7 8 10 11 11 12 12 13 14 14 16 17 17 17 17 17 17 17 18 18 19 20 19 21 23 23 22 19 20 19 17 18 20 20 20 20 22 23 24 24 24 25 28 31 32 32 31 30 27 24 23 23 27 30 30 30 28 26 22 18 17 19 19 19 19 19 20 22 22 21 20 20 19
5 6 9 8 7 8 8 7 7 7 6 6 7 8 9 10 11 11 12 13 13 14 15 16 16 17 17 18 18 17 18 19 19 19 19 21 23 24 24 22 22 22 20 19 19 19 20 20 21 23 24 25 26 26 27 30 32 33 33 32 30 26 25 25 28 32 32 32 31 28 26 22 19 20 21 20 19 19 20 23 23 22 23 22 20
4 5 7 7 7 7 8 7 7 7 7 7 8 8 9 9 10 10 11 12 13 14 14 14 15 16 17 17 18 18 18 18 19 19 19 20 22 23 24 23 23 23 21 20 20 20 22 22 22 23 24 25 27 27 27 29 31 33 34 35 33 28 27 27 28 33 35 33 32 31 28 25 22 22 22 21 21 20 20 23 24 24 24 23 21
5 6 6 7 7 7 7 7 8 8 9 10 10 10 10 10 10 10 11 12 13 14 14 15 15 16 17 17 17 18 18 18 19 20 20 19 20 22 23 22 22 24 22 21 20 20 21 22 21 22 24 25 26 26 28 30 31 32 33 36 36 31 30 30 29 33 36 35 34 33 30 27 25 24 24 23 22 20 21 22 24 25 25 23 21
6 8 8 8 8 8 8 8 9 9 10 11 12 12 12 11 10 11 11 11 13 14 15 16 17 17 17 17 17 18 18 19 19 20 20 19 19 21 22 21 22 23 23 21 20 18 18 19 19 20 22 24 25 25 27 29 31 32 33 35 37 35 33 33 32 33 36 37 36 36 32 29 28 27 26 26 23 20 21 22 23 26 25 23 22
7 9 9 8 8 8 9 9 10 10 11 11 12 11 12 13 13 13 13 11 12 14 15 16 17 17 18 18 19 18 18 18 18 20 20 20 20 21 21 21 21 22 21 20 19 18 18 19 18 18 21 23 23 24 26 29 31 31 31 34 37 38 37 36 35 34 36 38 38 37 35 32 31 30 28 28 25 21 20 21 23 25 25 24 23
8 9 9 9 9 10 10 11 11 11 11 12 12 12 13 14 14 14 13 12 12 14 15 16 16 16 17 18 18 19 18 18 18 19 20 20 20 21 21 21 21 22 21 20 20 18 16 17 18 18 21 23 23 22 24 27 28 30 32 34 36 39 40 40 39 37 36 38 40 38 37 35 33 32 31 30 28 23 21 22 22 23 25 25 24
8 8 8 9 10 11 11 11 12 12 12 12 13 13 14 15 15 14 13 13 14 15 15 16 16 16 16 15 17 19 19 18 18 18 18 19 19 19 20 20 20 21 21 21 21 20 16 16 16 16 18 20 21 21 22 25 25 26 32 36 36 37 40 41 41 40 37 38 41 40 39 38 35 34 33 32 30 26 22 22 23 23 24 26 26
7 8 8 9 10 10 11 11 12 12 12 13 14 14 15 16 16 16 16 16 16 16 15 14 15 16 17 15 16 17 18 18 19 18 18 19 20 21 21 20 20 20 21 22 23 22 18 17 17 16 16 18 21 22 22 24 24 25 28 35 38 38 39 41 41 42 40 38 41 42 40 40 38 35 34 34 32 28 25 23 23 24 25 26 27
7 8 8 9 10 10 11 11 12 12 13 13 14 15 15 16 17 17 18 18 18 19 17 15 14 15 16 17 17 17 16 18 19 18 18 19 21 22 20 20 19 21 23 24 24 23 20 19 18 17 18 19 20 23 23 23 25 26 26 32 38 39 39 40 39 42 42 40 40 42 42 41 40 37 35 35 34 31 28 25 24 24 25 27 28
7 8 9 9 10 10 11 11 12 12 12 12 13 14 14 15 16 17 18 18 18 19 19 17 16 16 16 16 19 19 17 17 18 17 18 19 21 22 21 20 20 20 22 23 26 27 23 21 21 19 19 20 21 24 25 23 24 26 26 28 33 37 38 37 37 40 44 42 41 42 43 43 42 39 36 36 36 33 31 28 26 24 24 27 28
8 8 9 9 10 10 10 10 11 11 11 12 13 13 14 15 16 16 17 17 17 17 17 17 17 16 16 15 16 18 18 19 19 20 21 20 21 22 21 21 21 21 22 24 26 28 25 24 24 22 20 20 21 24 25 22 22 24 26 26 28 32 34 35 35 37 42 44 42 42 43 43 43 42 39 38 38 36 34 31 29 26 24 26 28
8 8 8 9 9 9 9 9 10 11 12 13 14 16 16 16 17 17 17 17 16 16 16 16 16 14 15 15 14 15 17 18 19 21 22 21 21 22 21 21 22 22 22 23 25 27 28 27 25 23 21 20 22 24 24 23 22 23 26 26 25 27 30 32 34 34 40 45 43 42 44 44 44 44 42 40 39 38 36 34 32 30 28 27 27
8 8 8 8 9 9 9 10 11 13 14 15 16 17 18 17 17 17 17 16 16 17 17 16 15 13 12 13 13 14 16 17 17 18 19 19 19 21 22 22 23 22 21 23 25 27 29 28 26 23 20 20 23 24 24 23 22 23 25 25 24 26 27 31 33 33 37 44 45 44 44 44 45 44 44 42 40 39 38 36 34 33 31 29 28
8 9 9 9 10 10 11 12 13 14 15 16 17 17 17 16 17 16 16 16 17 18 18 17 15 13 12 11 11 13 14 16 17 16 17 19 19 19 21 22 23 22 21 22 24 25 27 27 27 24 20 20 21 23 24 23 22 24 26 26 26 28 30 31 33 33 35 41 45 45 45 45 45 45 44 44 42 41 40 38 36 34 34 33 31
9 10 10 11 12 12 13 14 15 16 16 17 17 17 17 16 15 15 14 15 15 16 16 15 15 14 13 12 11 12 13 15 15 15 17 19 19 19 20 21 22 23 23 23 22 22 24 26 28 26 22 21 22 22 25 24 23 25 27 26 27 29 30 30 31 32 35 39 44 46 46 46 46 45 45 45 45 43 42 40 37 36 36 36 35
10 11 12 12 13 14 14 15 16 16 16 17 18 18 19 18 17 16 16 16 15 14 14 13 13 13 13 12 12 12 13 15 16 16 19 22 23 22 22 22 22 23 26 26 22 21 23 25 27 26 22 22 23 23 25 25 24 26 27 28 27 27 29 30 29 30 33 38 42 47 49 47 46 46 45 45 46 45 44 42 39 38 37 36 37
11 12 13 14 14 15 16 16 16 16 16 17 18 20 21 21 20 20 19 19 18 17 15 13 12 12 13 13 13 12 13 14 16 17 20 22 24 25 25 25 24 23 23 24 22 21 23 24 24 23 23 25 25 25 26 26 25 26 27 29 29 28 29 30 30 29 32 35 39 45 48 48 46 46 46 46 46 46 45 44 42 40 38 35 35
13 14 15 16 14 13 15 17 17 16 17 18 19 20 21 21 21 20 20 20 20 19 17 15 13 13 13 13 13 13 13 14 15 16 19 20 22 24 25 25 25 24 24 24 23 23 22 23 23 23 25 27 25 26 27 25 25 27 28 30 30 30 30 31 31 29 31 34 36 40 45 48 48 47 46 46 46 46 46 45 44 43 41 37 35
16 17 17 17 15 13 15 18 18 18 19 19 20 21 21 21 20 18 18 18 18 18 17 15 15 15 15 15 14 14 13 14 15 17 17 18 20 22 23 23 24 25 25 25 25 24 22 22 23 23 24 24 22 24 26 24 24 27 28 30 31 30 30 31 30 30 31 33 35 38 42 47 49 48 47 47 47 47 46 46 46 45 43 40 37
17 17 16 16 15 14 16 18 19 19 20 20 20 20 20 19 18 17 16 16 16 16 15 15 15 15 15 14 14 13 13 12 13 14 14 15 15 17 19 20 21 22 23 24 24 24 24 24 24 24 24 23 22 25 26 23 22 24 26 29 31 30 29 30 30 30 31 33 35 38 41 44 46 49 50 50 49 48 47 48 48 46 44 42 39
17 16 15 15 15 14 15 18 19 19 19 19 19 19 18 17 16 15 16 16 15 15 15 15 15 14 14 13 13 13 13 13 12 11 12 13 12 12 14 17 18 19 20 22 23 23 24 25 25 25 25 24 23 24 25 24 22 22 24 28 32 32 31 32 31 31 32 34 36 38 40 42 44 48 52 53 51 50 49 48 48 46 44 43 40
15 16 15 15 14 12 13 16 18 18 18 18 18 18 17 15 15 15 15 15 15 16 16 17 17 16 15 14 14 15 15 15 15 13 13 14 14 13 15 15 16 17 17 17 20 21 21 22 23 24 25 25 25 24 24 23 23 22 23 27 31 34 34 35 35 33 33 34 36 38 40 41 43 46 51 53 52 51 49 47 47 45 44 43 40
12 14 15 15 14 12 11 14 17 17 17 17 17 17 16 14 14 15 15 15 16 17 19 20 20 20 19 19 20 20 20 19 18 17 17 16 15 14 14 13 14 16 16 15 15 16 17 17 19 21 21 23 25 26 24 23 22 22 22 25 29 32 35 37 38 36 33 32 35 40 42 42 42 46 50 51 51 51 50 49 47 45 44 43 41
10 11 13 14 14 13 12 12 15 17 17 17 16 16 14 13 13 14 13 14 16 17 19 20 21 22 22 23 23 23 23 24 24 24 23 20 15 13 13 11 11 12 15 15 15 14 14 14 15 17 18 19 22 24 24 24 23 23 23 24 27 29 31 35 37 35 33 32 34 38 41 42 42 44 49 50 51 52 52 53 50 46 44 42 41
11 11 11 12 13 13 12 11 14 17 17 16 16 15 14 13 13 13 12 13 15 17 19 20 21 22 22 22 23 23 24 24 25 26 26 24 19 15 13 12 11 11 14 16 16 15 15 15 15 16 17 17 18 19 21 22 24 26 27 26 26 27 30 34 36 35 35 35 35 36 40 41 41 43 47 49 50 52 54 55 51 47 45 43 42
16 14 12 14 15 14 12 11 13 17 18 17 17 17 15 14 13 12 12 13 15 18 20 21 21 22 22 22 23 23 24 24 24 24 25 25 22 19 17 15 13 12 14 17 17 16 15 15 15 16 16 16 17 17 17 19 21 24 28 29 28 26 28 32 36 37 37 37 37 38 39 39 40 43 45 47 51 54 55 56 53 48 46 44 45
20 18 18 20 20 19 16 13 13 17 20 20 19 18 18 16 13 11 11 12 13 15 18 20 21 22 23 24 24 25 24 24 24 24 23 22 21 20 19 19 17 15 14 17 17 16 16 15 14 14 15 15 14 15 15 16 16 19 23 27 29 27 25 27 31 35 38 38 37 37 37 38 40 42 42 44 47 50 52 55 55 50 46 47 48
20 20 20 21 22 22 22 19 17 20 22 22 21 21 21 19 14 11 11 12 12 13 15 17 19 20 21 24 26 26 25 24 24 23 21 20 19 18 18 18 20 19 17 17 18 17 16 16 14 12 12 12 12 12 13 13 13 15 16 20 24 26 25 25 27 31 34 36 36 36 35 36 37 40 41 38 34 34 39 45 50 52 50 48 45
19 19 19 20 21 22 24 24 23 23 24 24 24 24 24 23 18 13 12 12 13 14 15 15 17 17 18 22 25 25 23 23 23 22 21 19 17 17 16 16 18 19 17 16 17 18 18 18 18 17 16 15 14 12 11 11 11 11 12 14 18 21 24 24 26 28 29 30 34 38 36 34 34 37 40 36 27 23 26 33 40 45 46 43 38
Wind_Direction
156 178 196 203 213 220 221 236 246 249 262 265 256 259 260 252 247 244 248 253 258 260 250 242 246 250 248 253 260 261 264 267 264 261 262 261 266 276 288 296 295 301 314 321 329 332 332 329 324 323 323 328 339 335 294 235 256 256 248 257 269 277 282 270 258 261 253 220 187 179 168 163 162 157 152 154 151 145 147 144 142 140 134 134 133
191 193 205 213 227 243 248 254 255 250 254 265 264 263 263 259 257 248 244 248 249 255 254 245 244 247 247 250 256 260 262 264 262 261 264 267 264 273 289 294 288 290 298 307 318 325 325 321 319 321 319 319 327 327 298 249 259 267 259 256 264 275 275 263 258 249 219 189 182 176 166 163 161 157 154 157 156 151 151 151 149 143 135 134 138
196 197 208 220 238 254 261 263 266 268 263 264 265 264 260 257 261 257 251 250 247 249 253 251 247 248 248 249 253 255 258 263 263 260 262 267 267 273 285 290 287 284 288 294 302 312 315 312 312 314 310 305 313 315 299 268 260 265 263 257 264 271 266 258 237 205 188 172 172 173 168 165 162 161 158 159 162 158 155 159 157 149 140 132 129
202 208 217 232 249 256 263 266 265 268 266 264 264 262 263 262 264 267 265 260 254 251 251 251 249 250 249 250 252 251 256 261 261 260 261 263 271 276 276 284 288 283 281 285 289 297 304 305 303 305 304 297 301 305 302 282 257 258 264 259 262 262 255 241 194 176 175 167 168 175 172 170 166 166 163 161 166 166 161 165 166 159 149 139 132
218 227 236 247 258 262 266 269 268 268 272 278 279 278 276 271 271 273 272 267 261 259 257 255 252 252 251 251 252 252 255 258 260 262 263 265 273 278 273 274 280 280 278 276 278 284 291 297 296 298 296 286 290 299 305 287 255 262 269 261 257 250 235 195 173 166 169 168 170 177 175 174 170 168 168 166 166 169 168 170 173 170 164 155 145
223 237 251 259 265 270 272 270 272 276 281 285 283 284 284 280 279 277 272 266 262 263 262 261 258 254 254 254 253 254 255 258 262 263 266 269 272 275 273 268 265 269 274 273 271 273 280 289 289 290 286 274 277 292 304 284 257 268 270 260 254 239 215 185 175 169 168 171 175 177 176 174 167 162 166 167 166 169 171 174 176 176 176 172 163
240 246 256 264 269 274 276 272 275 279 282 282 281 284 285 286 287 280 271 266 260 257 258 261 261 258 255 256 255 255 258 261 264 263 266 269 270 271 272 268 257 253 262 267 269 269 270 278 282 282 279 272 269 281 297 278 254 265 264 254 251 232 209 188 176 173 173 177 184 183 178 174 164 159 162 164 167 168 172 175 176 178 178 180 179
256 257 260 266 270 274 277 277 281 283 283 284 285 284 281 284 287 284 279 274 268 260 258 258 259 261 258 257 259 260 261 260 261 262 264 266 267 269 269 268 262 257 261 261 262 268 268 270 276 277 276 273 267 272 286 275 252 258 261 253 245 229 208 188 175 175 178 182 189 190 183 176 167 164 163 164 167 167 169 170 172 177 178 181 185
262 263 261 264 267 272 279 285 291 291 289 292 292 283 277 277 278 283 284 281 276 266 263 263 261 263 262 261 263 263 262 260 259 261 263 264 264 264 262 263 263 263 267 262 255 259 264 269 272 273 274 274 270 270 277 274 253 248 253 249 236 225 204 185 179 180 183 187 191 193 188 180 173 168 165 165 163 163 165 166 169 177 179 182 187
258 259 259 264 268 274 278 286 295 301 301 298 295 290 289 286 276 273 279 279 277 270 267 267 265 265 263 262 262 263 262 261 261 260 261 262 261 260 258 260 262 261 264 263 257 252 255 264 269 269 269 269 269 266 265 267 255 240 245 244 232 223 201 185 186 188 186 190 194 196 194 186 176 167 165 166 164 162 164 165 167 172 177 180 185
251 251 254 261 270 277 280 285 293 298 299 299 298 296 298 298 287 273 271 274 276 276 274 270 272 274 272 270 269 267 265 263 264 263 263 263 261 260 257 258 261 262 260 258 256 253 250 253 260 266 268 268 269 265 258 259 254 242 241 242 233 221 199 186 189 193 191 194 197 199 197 189 177 168 165 164 161 161 162 164 164 166 171 174 179
255 257 259 267 277 283 289 296 302 302 297 297 295 290 290 296 296 290 282 278 280 284 282 276 277 283 282 281 280 276 271 268 267 266 266 264 261 259 256 257 260 262 261 255 250 250 249 247 250 258 262 265 267 267 261 255 251 248 247 241 231 218 199 188 188 196 197 196 201 203 199 190 177 167 162 160 157 156 157 157 158 158 161 164 168
258 264 270 283 294 297 305 309 310 308 303 295 287 287 290 293 297 297 291 279 276 279 279 276 276 281 285 287 286 285 282 279 273 267 266 267 266 261 257 256 258 257 257 258 252 246 245 246 248 251 251 253 257 262 266 258 248 249 252 241 226 215 201 191 185 196 202 198 202 207 201 191 176 164 160 160 158 156 157 155 154 154 152 153 155
261 267 275 289 301 304 308 306 301 300 302 300 294 294 295 292 294 298 300 293 284 278 276 277 278 283 289 288 289 288 283 286 288 278 268 265 267 265 260 256 255 253 251 252 254 253 250 247 248 250 247 244 243 251 261 261 250 243 245 240 229 217 206 197 184 192 209 204 203 208 203 188 176 168 160 161 161 160 161 157 155 152 149 148 147
256 265 275 284 295 299 299 298 298 298 298 299 296 294 293 292 294 297 302 298 293 291 286 285 286 289 290 286 292 295 284 283 289 285 279 274 270 264 262 258 255 254 251 248 250 256 256 250 248 248 248 243 238 241 249 259 257 244 238 235 231 222 210 202 185 187 210 212 207 210 204 186 177 174 166 165 167 166 166 162 158 155 151 151 148
253 266 277 284 289 292 294 296 299 299 298 297 294 293 289 287 288 290 291 288 289 293 291 288 286 287 289 287 292 293 287 289 289 281 278 278 276 270 267 265 260 258 256 254 253 255 255 253 251 249 247 245 240 238 239 249 254 247 241 232 231 227 212 202 187 187 206 214 215 215 204 188 180 182 177 173 174 172 171 168 165 162 159 157 154
262 273 280 287 290 292 296 300 300 299 297 295 292 290 288 287 286 286 285 284 284 286 285 287 285 282 282 287 290 287 288 301 302 291 272 263 269 271 271 272 268 263 261 259 257 256 254 253 252 250 246 244 242 239 237 239 241 245 244 234 231 229 213 203 191 189 203 211 217 219 207 195 187 189 187 180 179 180 178 174 172 171 168 165 161
265 271 279 289 293 296 297 297 294 292 291 289 288 288 290 289 288 285 284 286 288 287 287 287 286 283 279 278 277 278 285 293 295 295 284 268 262 258 266 277 276 269 267 264 260 258 257 254 252 249 247 244 242 241 239 238 236 240 243 235 231 227 216 207 194 191 204 209 214 218 209 202 198 196 193 185 184 186 184 180 179 179 176 172 169
247 253 261 272 283 290 289 286 282 280 279 277 281 287 289 288 286 285 286 288 290 289 289 288 287 287 286 280 276 274 278 281 283 290 291 284 269 257 266 278 277 275 277 274 267 262 260 257 252 249 249 248 245 243 241 239 239 239 242 239 234 227 218 211 197 192 203 208 211 214 210 207 207 205 198 191 189 190 189 186 185 187 185 182 180
236 244 256 275 286 288 287 287 286 282 277 274 276 278 278 280 282 286 288 288 288 287 287 288 287 287 287 285 283 280 276 274 275 278 281 282 280 274 274 272 269 274 277 275 274 272 266 261 254 251 251 250 247 246 243 239 239 238 239 240 237 229 220 213 203 196 200 206 208 211 214 212 209 209 204 197 195 195 194 192 189 192 194 191 189
260 264 280 300 302 299 298 296 296 294 288 283 280 274 273 277 278 281 283 283 284 284 285 287 286 286 286 286 285 284 279 276 275 272 272 277 281 282 283 277 270 269 269 269 272 273 272 270 262 254 252 249 247 248 245 239 238 238 239 241 237 230 223 215 206 200 199 203 206 208 214 216 209 210 209 202 200 200 200 196 192 196 198 196 195
281 284 292 302 305 304 303 300 299 299 295 289 287 285 282 282 280 278 276 275 276 277 280 284 284 283 284 284 283 284 283 280 279 277 272 272 277 282 284 283 279 277 271 268 267 266 266 268 265 258 253 250 248 248 246 241 239 239 241 243 239 229 225 218 209 206 203 201 204 206 209 215 210 207 210 208 204 202 202 199 196 197 199 199 198
277 288 297 306 308 306 306 308 309 306 303 296 290 288 286 285 286 286 284 283 280 277 276 276 277 278 279 279 280 282 284 283 283 280 274 273 277 282 284 283 282 282 278 272 268 263 259 258 259 259 255 252 250 247 246 243 241 239 240 242 241 230 224 222 212 209 208 202 201 205 207 211 209 205 208 211 208 205 204 201 199 198 201 204 201
287 300 307 313 313 311 315 317 316 313 312 309 302 296 292 290 290 289 288 289 288 286 282 278 275 276 278 278 280 281 280 281 282 280 277 278 280 281 284 287 286 285 282 278 272 266 263 259 253 256 258 255 252 248 245 244 243 241 238 240 241 233 223 224 217 211 212 206 201 204 207 208 206 203 206 210 211 208 206 205 202 201 203 205 202
314 320 320 322 319 316 317 317 318 322 323 322 318 311 305 299 294 292 290 288 289 287 283 280 275 275 278 279 280 280 279 277 277 278 279 281 282 282 284 287 286 286 287 284 277 271 270 265 254 252 255 253 252 249 245 243 243 243 240 238 240 236 224 221 220 214 213 210 204 203 207 207 205 204 205 209 212 211 210 209 207 207 207 206 205
326 328 325 323 320 319 320 323 326 328 327 325 320 316 313 307 300 296 293 289 288 286 284 282 278 275 275 275 276 276 276 276 276 278 280 280 279 281 285 286 285 286 288 287 281 275 270 265 257 251 251 254 255 252 247 242 240 242 242 239 238 235 227 220 219 217 214 213 209 205 205 206 205 205 205 208 212 213 214 213 211 212 211 208 208
329 327 324 324 325 328 332 335 336 334 330 326 321 316 312 311 307 302 298 293 288 284 283 283 281 278 274 273 274 274 274 276 277 277 277 276 277 279 283 286 286 287 289 288 284 277 268 266 264 253 251 261 263 257 252 245 240 241 243 242 239 234 229 222 218 218 215 214 214 209 205 205 205 204 205 209 212 214 215 214 212 212 211 207 205
329 327 328 330 333 336 338 338 337 335 331 325 321 316 313 313 311 307 302 295 288 284 280 278 279 279 278 276 275 273 274 275 276 276 275 275 277 279 281 281 281 283 287 288 286 283 276 274 272 259 255 264 268 263 259 254 249 246 242 240 239 235 231 225 218 216 216 215 216 213 207 205 206 206 207 210 213 214 215 214 210 208 207 205 202
330 331 335 338 340 341 341 341 338 336 331 327 322 318 316 315 312 309 306 300 295 293 289 283 278 275 274 275 275 275 277 278 278 277 277 276 275 276 278 277 275 276 280 284 285 286 283 278 275 267 262 266 270 271 270 267 264 256 243 234 234 235 235 229 220 216 215 215 216 215 210 206 206 207 208 210 212 213 214 214 210 205 203 204 202
339 342 347 348 346 345 342 340 338 334 331 327 323 320 318 316 315 314 313 310 306 305 301 294 287 279 271 268 272 276 277 278 279 278 277 276 275 276 277 276 272 270 272 275 278 283 283 278 275 273 268 266 270 277 278 275 273 265 248 233 229 234 238 235 225 217 215 215 215 215 212 209 208 207 208 211 212 212 212 212 210 206 203 204 204
357 355 355 351 347 345 342 340 337 334 331 328 325 324 322 321 320 320 319 317 314 312 308 302 297 290 279 270 266 268 273 276 276 277 278 276 277 278 276 273 271 270 271 269 272 280 282 278 277 276 275 268 267 276 280 275 272 268 257 240 232 233 239 238 228 218 216 214 214 215 213 211 210 208 208 212 213 212 211 211 210 207 204 205 205
2 358 354 351 349 348 347 344 341 340 337 336 334 332 331 329 327 325 322 320 317 317 315 309 303 295 288 280 268 263 271 278 276 275 277 277 278 279 274 272 271 269 272 270 271 277 281 281 281 278 278 273 266 275 281 276 271 267 261 249 237 233 237 237 228 221 218 214 212 214 215 214 212 209 208 211 214 213 212 212 211 209 207 207 207
3 360 356 354 353 353 354 352 350 349 348 347 346 343 342 340 337 333 330 327 325 324 323 320 314 299 288 286 279 270 272 280 281 277 276 277 281 279 273 272 274 273 275 272 269 275 281 284 284 280 278 273 267 276 281 274 266 261 256 250 237 231 234 234 230 226 221 216 213 212 214 215 214 212 210 211 214 214 214 214 212 212 212 211 210
7 3 1 359 359 0 2 2 359 356 356 356 355 353 352 350 349 347 343 341 338 335 333 332 329 315 294 288 292 289 284 284 287 282 276 276 282 283 277 273 274 275 276 274 272 276 280 282 284 283 280 272 267 276 280 271 264 257 249 244 235 231 235 235 235 232 221 215 215 213 212 214 216 215 212 212 214 215 215 215 214 214 215 215 214
12 10 10 8 10 11 11 11 7 5 5 5 3 0 359 359 358 356 352 351 349 348 347 344 340 334 314 298 296 300 297 295 296 290 281 280 285 287 284 280 278 276 276 277 279 278 278 281 284 284 280 275 271 277 280 272 264 255 248 244 238 233 237 237 236 236 226 218 216 214 212 213 215 216 215 214 215 215 216 217 215 215 216 217 217
20 20 20 19 19 19 18 16 13 13 13 12 9 6 4 3 2 358 358 358 357 356 357 355 350 347 338 324 313 308 306 303 304 302 291 286 287 287 287 287 285 283 279 278 280 279 279 282 284 281 279 276 273 277 281 276 264 252 246 246 243 237 238 239 237 236 231 223 218 216 214 212 213 216 216 215 215 215 217 219 218 217 217 218 218
28 27 26 24 24 23 22 22 21 21 21 18 16 12 9 7 1 358 1 2 359 358 358 357 356 352 345 337 328 317 309 304 304 304 296 292 292 291 290 289 287 287 284 280 279 281 282 282 282 280 278 276 274 275 279 277 266 254 245 241 242 241 240 242 241 237 233 226 219 216 216 214 213 214 216 216 216 216 217 219 221 221 220 220 219
34 32 30 28 29 30 30 29 30 30 28 25 23 21 18 15 8 5 6 4 360 356 352 349 349 347 342 334 323 312 303 298 296 298 295 292 292 293 293 293 292 291 290 288 286 285 285 283 282 281 278 276 276 276 278 278 271 258 246 239 242 244 243 243 244 240 235 230 221 216 216 215 214 214 215 216 216 217 218 219 221 223 222 223 223
42 38 36 34 36 40 40 40 38 36 33 30 27 26 23 20 18 15 11 7 5 2 355 349 346 344 342 335 325 316 308 300 295 295 294 292 291 292 292 292 294 293 294 295 293 291 290 288 285 282 279 279 279 279 281 282 275 262 249 241 240 241 242 242 242 240 236 233 227 220 217 216 215 215 216 216 217 217 219 219 219 221 221 222 223
51 49 47 46 45 45 44 44 40 33 30 28 25 23 21 21 21 19 13 9 8 7 3 356 350 347 345 339 332 326 321 315 309 303 302 302 299 296 293 291 291 290 291 291 290 290 292 293 290 284 283 284 282 281 283 282 273 262 251 243 240 238 240 241 238 235 234 233 230 222 219 218 217 216 216 217 218 218 218 219 219 220 221 221 222
57 55 53 51 50 47 44 42 37 31 28 26 23 20 19 19 20 17 14 12 10 8 5 0 358 355 351 346 341 334 328 322 316 309 307 305 301 297 296 297 297 294 293 291 290 290 290 290 289 287 288 287 282 282 284 283 277 269 256 246 241 238 238 238 235 234 234 235 232 226 221 219 218 217 216 217 219 218 218 218 219 219 220 221 222
59 57 53 52 51 48 45 42 36 31 29 27 25 23 21 19 17 16 15 13 12 8 4 3 3 0 356 349 342 336 329 322 316 314 314 310 304 303 305 305 305 303 300 298 295 293 291 288 287 287 288 285 283 286 286 284 284 281 266 250 240 237 238 238 237 236 235 235 234 230 226 222 219 218 216 217 218 217 216 216 218 219 218 219 220
61 58 55 53 52 49 45 42 37 33 30 29 27 26 24 20 17 18 18 16 16 14 10 9 9 7 2 353 345 340 338 333 325 322 324 320 315 316 316 312 309 306 303 301 298 294 291 288 286 285 285 284 285 289 289 284 283 284 275 258 244 237 238 238 237 237 236 236 236 234 231 227 222 219 217 216 216 216 216 217 217 217 217 217 217
60 58 55 52 51 48 45 41 37 33 30 28 25 25 25 21 22 28 29 27 27 28 28 26 24 21 17 13 10 6 2 355 343 335 330 324 323 326 327 325 320 313 309 306 303 300 297 295 291 289 288 287 284 283 283 283 282 281 279 269 254 243 239 238 238 239 241 240 238 237 236 232 227 222 219 217 216 216 217 219 218 216 216 216 215
60 57 54 52 50 47 44 41 38 34 29 26 25 27 25 21 29 39 40 39 39 39 39 38 34 31 28 28 28 24 19 13 3 358 350 335 329 334 335 335 330 322 318 316 312 307 305 303 299 293 291 289 286 282 279 275 274 273 274 271 262 251 244 241 241 243 246 245 240 238 238 236 231 225 221 219 218 217 216 218 218 216 215 215 214
60 57 52 49 48 46 44 42 38 34 31 26 26 29 25 21 32 43 42 41 41 39 40 38 34 32 30 28 26 23 20 17 13 11 7 356 348 347 345 344 341 334 332 330 324 319 317 317 312 302 296 290 287 284 280 272 265 262 265 268 265 261 257 252 249 249 251 252 249 242 237 237 233 227 222 219 217 215 215 216 216 215 215 215 213
62 58 54 50 47 45 45 43 39 36 33 27 26 29 26 24 34 40 38 39 39 36 36 34 31 29 27 23 20 15 13 12 10 8 7 5 4 1 357 353 349 351 355 351 345 340 335 331 327 320 312 305 296 290 285 277 266 257 255 260 263 266 266 259 250 247 247 250 251 245 238 237 235 229 224 220 217 216 216 216 215 214 213 212 210
63 59 56 53 50 47 46 45 40 37 33 28 26 26 23 26 37 39 34 36 36 33 31 28 25 22 18 15 11 6 3 2 1 0 359 1 4 6 6 6 359 358 4 3 2 358 347 339 333 327 323 318 313 307 297 287 277 265 257 256 260 264 264 255 246 242 243 243 244 243 239 236 234 229 222 218 216 214 214 216 215 211 209 207 205
66 61 56 54 52 50 48 48 43 38 36 31 28 27 24 27 37 37 31 31 30 27 24 19 16 14 10 7 2 357 356 354 353 353 352 353 359 2 3 5 3 2 4 4 7 6 358 349 339 330 327 323 320 316 308 296 287 278 266 258 257 260 261 257 250 244 242 241 240 240 237 233 231 226 216 208 207 208 208 210 209 204 202 202 200
70 66 62 58 57 53 51 52 51 46 43 39 36 35 32 33 38 34 27 27 24 21 18 13 12 12 10 9 5 360 358 355 352 352 350 349 352 354 356 359 359 2 4 1 2 6 5 2 359 353 348 343 337 330 322 308 294 285 275 263 257 255 257 260 258 252 245 239 237 236 229 223 223 220 209 198 193 195 196 194 194 194 194 193 189
73 71 68 65 63 60 56 56 56 54 50 47 45 44 41 41 43 40 31 29 26 22 20 18 19 20 18 16 12 8 6 5 2 360 356 354 354 353 353 354 355 2 8 1 356 1 3 5 11 14 15 12 7 2 353 336 317 301 288 275 263 256 254 258 260 255 241 227 227 228 219 210 210 208 201 189 168 160 174 176 174 178 179 175 171